Hourly Data Report for October 19, 2003

SHERBROOKE A
QUEBEC

45°26'00.000" N
71°41'00.000" W
241.40 m
7028124
71610
YSC

Download Data

Hourly Data (October 2003)
Hourly Data Report for October 19, 2003
TIME
LST
Temp Definition
°C
Dew Point Definition
°C
Rel Hum Definition
%
Precip. Amount Definition
mm

Wind Dir Definition
10's deg

Wind Spd Definition
km/h
Visibility Definition
km
Stn Press Definition
kPa
Hmdx Definition


Wind Chill Definition


Weather Definition


00:00 2.0 0.5 90   26 4 15.0 98.55      
01:00 1.7 0.6 92   28 6 11.3 98.52      
02:00 1.4 0.3 92   28 4 9.7 98.47      
03:00 0.7 -0.1 94   28 6 8.0 98.47      
04:00 0.8 0.0 94     0 8.0 98.46      
05:00 0.3 -0.7 93   21 4 8.0 98.49      
06:00 0.3 -0.4 95     0 4.0 98.51      
07:00 0.3 -0.5 94   23 7 3.2 98.55     Fog
08:00 1.1 0.4 95   29 9 2.0 98.60     Fog
09:00 2.0 0.5 90   32 6 12.9 98.61     Mostly Cloudy
10:00 3.4 0.4 81   33 7 24.1 98.63     Mostly Cloudy
11:00 4.3 -0.3 72   31 9 24.1 98.64     Mostly Cloudy
12:00 5.7 0.2 68   28 6 24.1 98.62     Mainly Clear
13:00 5.4 -2.5 57   32 6 24.1 98.61     Mostly Cloudy
14:00 5.0 -3.3 55   31 13 24.1 98.63     Mostly Cloudy
15:00 6.3 -4.8 45   30 17 24.1 98.66     Mainly Clear
16:00 4.4 -5.6 48   31 11 24.1 98.74     Mostly Cloudy
17:00 3.3 -5.6 52   31 13 15.0 98.80      
18:00 2.0 -4.7 61   27 9 15.0 98.87      
19:00 1.5 -5.1 61   29 7 15.0 98.90      
20:00 -1.0 -5.8 70   26 6 15.0 98.92   -3  
21:00 -3.5 -5.7 85   27 6 15.0 98.95   -6  
22:00 -2.4 -5.3 80   25 4 15.0 98.97   -4  
23:00 -2.4 -5.2 81   23 4 15.0 98.99   -4  

Notes on Data Quality.

Legend

  • E = Estimated
  • M = Missing
  • NA = Not Available*
  • [empty] = Indicates an unobserved value
Date modified: